Regional Weather Roundup
Issued by NWS

Home | Current Version | Previous Version | Graphics & Text | Print | Product List | Glossary Off
Versions: 1 2 3 4 5 6 7 8 9 10 11 12 13 14 15 16 17 18 19 20 21 22 23 24 25 26 27 28 29 30 31 32 33 34 35 36 37 38 39 40 41 42 43 44 45 46 47 48 49 50

000
ASUS43 KLSX 290807
RWRMO

WEATHER SUMMARY FOR MISSOURI
NATIONAL WEATHER SERVICE SPRINGFIELD MO
300 AM CDT FRI MAY 29 2015

NOTE: "FAIR" INDICATES FEW OR NO CLOUDS BELOW 12,000 FEET WITH NO
       SIGNIFICANT WEATHER AND/OR OBSTRUCTIONS TO VISIBILITY.
       CURRENT SKY AND/OR WEATHER CONDITIONS ARE NOT AVAILABLE FOR
       CHILLICOTHE AND FARMINGTON.

MOZ001>031-035>038-043-044-053-054-290900-
...NORTHERN AND WESTERN MISSOURI...

CITY           SKY/WX    TMP DP  RH WIND       PRES   REMARKS
KANSAS CTY INT MOCLDY    62  62 100 S5        29.95S
KANSAS C DTWN  PTCLDY    65  61  87 S3        29.94S
LEE`S SUMMIT   MOCLDY    63  61  93 SE6       29.95F
ST JOSEPH      CLEAR     64  62  93 S3        29.95S
CHILLICOTHE      N/A     66  64  93 SE3       29.95F
KIRKSVILLE     CLOUDY    64  64 100 CALM      29.97F

$$
MOZ066>068-077>081-088>096-101>105-290900-
...SOUTHWEST MISSOURI...

CITY           SKY/WX    TMP DP  RH WIND       PRES   REMARKS
SPRINGFIELD    MOCLDY    66  61  84 S12       29.98R
JOPLIN         CLOUDY    68  64  87 S7        29.96R

$$
MOZ032>034-039>042-045>050-055>058-069>072-290900-
...CENTRAL MISSOURI...

CITY           SKY/WX    TMP DP  RH WIND       PRES   REMARKS
COLUMBIA       CLOUDY    66  65  96 S13       29.96F
JEFFERSON CITY MOCLDY    67  64  90 SE3       29.96F
ROLLA          MOCLDY    67  64  90 S9        29.97F
SEDALIA        CLOUDY    65  63  93 S6        29.97F
WHITEMAN AFB   PTCLDY    65  64  98 SE5       29.94S
WARRENSBURG      N/A     63  63 100 E3        29.94S FOG
OSAGE BEACH    CLOUDY    64  63  94 S5        29.98S

$$
MOZ051-052-059>065-290900-
...EAST CENTRAL MISSOURI...

CITY           SKY/WX    TMP DP  RH WIND       PRES   REMARKS
ST LOUIS INTL  CLOUDY    74  64  71 S12       30.00F
SPIRIT OF STL  MOCLDY   N/A N/A N/A S6        29.98F
ST CHARLES     CLOUDY    72  66  81 SE8       29.99F

$$
MOZ072>076-082>087-097>100-106>115-290900-
...SOUTH CENTRAL AND SOUTHEAST MISSOURI...

CITY           SKY/WX    TMP DP  RH WIND       PRES   REMARKS
CAPE GIRARDEAU CLEAR     66  65  96 SE6       30.03F
FARMINGTON     MOCLDY    68  64  88 S8        30.06F
POPLAR BLUFF   PTCLDY    70  66  87 S5        30.01F
WEST PLAINS    MOCLDY    68  64  87 S8        30.02F

$$


USA.gov is the U.S. government's official web portal to all federal, state and local government web resources and services.